This demonstration page uses our WeatherBlox Daily Observations layout. Learn more.

Left ArrowRight Arrow

40.92945, -100.16068

Hourly Observations for May 16, 2020

Temp ( °F °C ) Dew Point ( °F °C ) Humidity (%) Winds ( mph kmh ) Pressure ( in mb ) Visibility ( mi km ) Precip ( " mm )
12:15 am 00:15 Cloudy 62 16.5 48 9 61 61 ESE 12 19 29.86 1011 10 16.0934 0 0
12:35 am 00:35 Cloudy 61 16.1 48 9.1 63 63 E 6 9 29.88 1012 10 16.0934 0 0
12:55 am 00:55 Cloudy 60 15.7 49 9.5 67 67 E 5 7 29.88 1012 10 16.0934 0 0
1:15 am 01:15 Cloudy 60 15.5 49 9.6 68 68 E 7 11 29.89 1012 10 16.0934 0 0
1:35 am 01:35 Cloudy 60 15.5 50 10 70 70 E 8 13 29.89 1012 10 16.0934 0 0
1:55 am 01:55 Cloudy with Drizzle 59 15.2 51 10.4 73 73 E 7 11 29.9 1013 10 16.0934 0 0
2:15 am 02:15 Cloudy 59 15.2 51 10.5 74 74 E 6 9 29.89 1012 10 16.0934 0 0
2:35 am 02:35 Cloudy 59 15 52 11 77 77 ENE 8 13 29.9 1012 10 16.0934 0 0
2:55 am 02:55 Cloudy with Light Rain 59 15 53 11.4 79 79 NNE 3 6 29.91 1013 10 16.0934 0 0
3:15 am 03:15 Cloudy with Rain 55 12.7 52 11 89 89 N 21 33 29.93 1013 7 11.26538 0.02 0.508
3:35 am 03:35 Cloudy with Rain 54 12.2 52 11.1 93 93 N 14 22 29.93 1014 5 8.0467 0.12 3.048
3:55 am 03:55 Cloudy with Light Rain 54 12 52 11 94 94 N 20 31 29.93 1014 10 16.0934 0.13 3.302
4:15 am 04:15 Cloudy with Heavy Rain 54 12.1 52 11 93 93 N 15 24 29.94 1014 7 11.26538 0.07 1.778
4:35 am 04:35 Cloudy with Heavy Rain 54 12 52 11 94 94 NNE 16 26 29.93 1014 2.5 4.02335 0.41 10.414
4:55 am 04:55 Cloudy with Heavy Rain 54 12 52 11.2 95 95 N 13 20 29.94 1014 3 4.82802 0.52 13.208
5:15 am 05:15 Cloudy with Heavy Rain 53 11.7 52 11 96 96 N 9 15 29.96 1014 4 6.43736 0.09 2.286
5:35 am 05:35 Cloudy with Rain 53 11.4 51 10.7 96 96 NE 12 19 29.95 1014 3 4.82802 0.25 6.35
5:55 am 05:55 Cloudy with Light Rain 52 11 50 10.1 94 94 NE 16 26 29.94 1014 5 8.0467 0.29 7.366
6:15 am 06:15 Cloudy with Rain 51 10.8 50 10.1 95 95 NE 13 20 29.94 1014 5 8.0467 0.03 0.762
6:35 am 06:35 Cloudy with Rain 52 11 50 10.2 95 95 NE 9 15 29.94 1014 5 8.0467 0.07 1.778
6:55 am 06:55 Cloudy with Rain 52 11 51 10.4 96 96 NE 5 7 29.95 1014 4 6.43736 0.12 3.048
7:15 am 07:15 Cloudy with Heavy Rain 52 11 51 10.3 95 95 ENE 8 13 29.96 1015 2.5 4.02335 0.05 1.27
7:35 am 07:35 Cloudy with Heavy Rain 51 10.8 51 10.5 98 98 ENE 8 13 29.94 1014 1.5 2.41401 0.18 4.572
7:55 am 07:55 Cloudy with Heavy Rain 52 11.1 51 10.7 97 97 E 8 13 29.93 1014 1.75 2.816345 0.29 7.366
8:15 am 08:15 Cloudy with Rain 53 11.5 52 11 97 97 E 10 17 29.94 1014 3 4.82802 0.02 0.508
8:35 am 08:35 Cloudy with Light Rain 53 11.7 52 11.2 97 97 E 7 11 29.94 1014 3 4.82802 0.04 1.016
8:55 am 08:55 Cloudy with Light Rain 54 12 53 11.5 97 97 E 6 9 29.91 1013 3 4.82802 0.06 1.524
9:15 am 09:15 Cloudy with Light Rain 54 12.1 53 11.4 96 96 Calm 29.94 1014 4 6.43736 0 0
9:35 am 09:35 Cloudy with Rain 55 12.6 53 11.9 96 96 WNW 5 7 29.94 1014 4 6.43736 0.02 0.508
9:55 am 09:55 Cloudy with Light Rain 55 12.8 54 12.1 96 96 NNW 5 7 29.94 1014 4 6.43736 0.03 0.762
10:15 am 10:15 Cloudy 56 13.2 54 12.3 94 94 WNW 6 9 29.94 1014 7 11.26538 0 0
10:35 am 10:35 Cloudy 57 14 55 12.7 92 92 Calm 29.92 1013 7 11.26538 0 0
10:55 am 10:55 Cloudy 58 14.6 56 13.3 92 92 N 5 7 29.92 1013 10 16.0934 0 0
11:15 am 11:15 Cloudy 59 15.2 56 13.2 88 88 N 7 11 29.91 1013 10 16.0934 0 0
11:35 am 11:35 Cloudy 60 15.6 56 13.1 85 85 NW 5 7 29.92 1013 10 16.0934 0 0
11:55 am 11:55 Mostly Cloudy 62 16.4 57 13.9 85 85 WNW 8 13 29.91 1013 10 16.0934 0 0
12:15 pm 12:15 Mostly Cloudy 61 16.1 56 13.6 85 85 WNW 10 17 29.92 1013 10 16.0934 0 0
12:35 pm 12:35 Cloudy 62 16.5 56 13.6 83 83 NW 6 9 29.92 1013 10 16.0934 0 0
12:55 pm 12:55 Cloudy 63 17 57 14.1 83 83 N 3 6 29.91 1013 10 16.0934 0 0
1:15 pm 13:15 Cloudy 62 16.9 57 13.8 82 82 W 5 7 29.91 1013 10 16.0934 0 0
1:35 pm 13:35 Mostly Cloudy 64 17.8 58 14.3 80 80 WNW 5 7 29.89 1012 10 16.0934 0 0
1:55 pm 13:55 Mostly Cloudy 66 18.7 58 14.2 75 75 NW 6 9 29.87 1012 10 16.0934 0 0
2:15 pm 14:15 Partly Cloudy 66 19.1 58 14.3 74 74 NNW 8 13 29.87 1012 10 16.0934 0 0
2:35 pm 14:35 Mostly Cloudy 66 19 57 13.8 72 72 NNW 13 20 29.87 1012 10 16.0934 0 0
2:55 pm 14:55 Cloudy 66 18.7 56 13.5 72 72 NW 8 13 29.87 1012 10 16.0934 0 0
3:15 pm 15:15 Mostly Cloudy 69 20.3 57 14 67 67 NW 12 19 29.85 1011 10 16.0934 0 0
3:35 pm 15:35 Cloudy 67 19.2 57 13.8 71 71 NNW 7 11 29.86 1011 10 16.0934 0 0
3:55 pm 15:55 Mostly Cloudy with Nearby Thunderstorms 69 20.5 56 13.6 65 65 WNW 10 17 29.85 1011 10 16.0934 0 0
4:15 pm 16:15 Mostly Cloudy 67 19.5 57 13.7 69 69 NW 13 20 29.86 1011 10 16.0934 0 0
4:35 pm 16:35 Cloudy with Nearby Thunderstorms 58 14.5 54 12 85 85 WNW 13 20 29.92 1013 4 6.43736 0.02 0.508
4:55 pm 16:55 Mostly Cloudy 61 16.3 54 12 76 76 WNW 10 17 29.88 1012 10 16.0934 0.02 0.508
5:15 pm 17:15 Partly Cloudy 66 18.7 57 14 74 74 NW 12 19 29.86 1011 10 16.0934 0 0
5:35 pm 17:35 Partly Cloudy 66 18.8 58 14.3 75 75 NNW 16 26 29.86 1011 10 16.0934 0 0
5:55 pm 17:55 Partly Cloudy 66 18.9 57 13.9 73 73 NNW 13 20 29.85 1011 10 16.0934 0 0
6:15 pm 18:15 Sunny 66 18.8 56 13.4 71 71 NNW 10 17 29.85 1011 10 16.0934 0 0
6:35 pm 18:35 Partly Cloudy 67 19.4 55 12.9 66 66 NNW 10 17 29.86 1011 10 16.0934 0 0
6:55 pm 18:55 Partly Cloudy 66 18.7 53 11.7 64 64 N 10 17 29.86 1011 10 16.0934 0 0
7:15 pm 19:15 Mostly Cloudy 66 18.7 53 11.9 65 65 N 8 13 29.86 1011 10 16.0934 0 0
7:35 pm 19:35 Mostly Cloudy 65 18.5 54 12.4 68 68 N 9 15 29.88 1012 10 16.0934 0 0
7:55 pm 19:55 Mostly Cloudy with Nearby Thunderstorms 56 13.5 47 8.5 72 72 NNE 18 30 29.95 1014 10 16.0934 0 0
8:15 pm 20:15 Partly Cloudy 56 13.5 49 9.6 77 77 NNE 9 15 29.95 1014 10 16.0934 0 0
8:35 pm 20:35 Partly Cloudy 56 13.2 50 10 81 81 N 10 17 29.95 1014 10 16.0934 0 0
8:55 pm 20:55 Partly Cloudy 54 12.4 50 10.1 86 86 N 12 19 29.97 1015 10 16.0934 0 0
9:15 pm 21:15 Clear 53 11.7 50 9.8 88 88 NNW 6 9 29.98 1015 10 16.0934 0 0
9:35 pm 21:35 Clear 51 10.4 49 9.2 92 92 NW 7 11 30 1016 10 16.0934 0 0
9:55 pm 21:55 Clear 51 10.3 49 9.3 94 94 WNW 6 9 30.01 1016 10 16.0934 0 0
10:15 pm 22:15 Clear 51 10.5 49 9.2 92 92 NW 9 15 30 1016 10 16.0934 0 0
10:35 pm 22:35 Clear 51 10.5 48 9 91 91 NW 8 13 30.01 1016 10 16.0934 0 0
10:55 pm 22:55 Clear 50 10 48 8.9 93 93 NW 6 9 30.02 1017 10 16.0934 0 0
11:15 pm 23:15 Clear 49 9.5 47 8.6 94 94 NW 5 7 30.04 1017 10 16.0934 0 0
11:35 pm 23:35 Clear 50 9.8 48 8.9 94 94 NNW 7 11 30.03 1017 10 16.0934 0 0
11:55 pm 23:55 Clear 50 10 49 9.2 95 95 NNW 7 11 30.03 1017 10 16.0934 0 0

Powered by AerisWeather